Terminal Aerodrome Forecast
Issued by NWS Pittsburgh, PA

Current Version | Previous Version | Graphics & Text | Print | Product List | Glossary On
Versions: 1 2 3 4 5 6 7 8 9 10 11 12 13 14 15 16 17 18 19 20 21 22 23 24 25 26
978
FTUS41 KPBZ 151433 AAA
TAFPIT
TAF AMD
KPIT 151433Z 1515/1618 36005KT P6SM SCT010 BKN250
     FM161200 07003KT P6SM BKN100=

USA.gov is the U.S. government's official web portal to all federal, state and local government web resources and services.